This is the latest recevied weather packets stored in our database for station/object KC1TEM-13. If no packets are shown the sender has not sent any weather packets the latest 10 day(s).
| Time | Temp. | Humidity | Pressure | Rain* | Wind** | Luminosity | Snow |
|---|---|---|---|---|---|---|---|
| 1777850151 | 10° C | 39% | 1007.8 hPa | 0 mm | - | 14 W/m² | - |
| 1777849847 | 10.56° C | 39% | 1007.6 hPa | 0 mm | - | 16 W/m² | - |
| 1777849544 | 10.56° C | 39% | 1007.6 hPa | 0 mm | - | 18 W/m² | - |
| 1777849241 | 10.56° C | 39% | 1007.5 hPa | 0 mm | - | 20 W/m² | - |
| 1777848939 | 10.56° C | 41% | 1007.7 hPa | 0 mm | - | 24 W/m² | - |
| 1777848639 | 10.56° C | 39% | 1007.5 hPa | 0 mm | - | 26 W/m² | - |
| 1777848337 | 10.56° C | 39% | 1007.4 hPa | 0 mm | - | 41 W/m² | - |
| 1777848034 | 10.56° C | 38% | 1007.3 hPa | 0 mm | - | 45 W/m² | - |
| 1777847732 | 10.56° C | 36% | 1007.3 hPa | 0 mm | - | 33 W/m² | - |
| 1777847427 | 11.11° C | 37% | 1007.2 hPa | 0 mm | - | 30 W/m² | - |
| 1777847126 | 11.11° C | 37% | 1007.2 hPa | 0 mm | - | 41 W/m² | - |
| 1777846824 | 11.11° C | 37% | 1007.2 hPa | 0 mm | - | 73 W/m² | - |
| 1777846522 | 11.11° C | 36% | 1007 hPa | 0 mm | - | 63 W/m² | - |
| 1777846219 | 11.11° C | 38% | 1007.1 hPa | 0 mm | - | 39 W/m² | - |
| 1777845915 | 11.11° C | 37% | 1006.9 hPa | 0 mm | - | 66 W/m² | - |
| 1777845612 | 11.11° C | 36% | 1006.9 hPa | 0 mm | - | 94 W/m² | - |
| 1777845309 | 11.11° C | 37% | 1007 hPa | 0 mm | - | 94 W/m² | - |
| 1777845006 | 11.11° C | 37% | 1006.8 hPa | 0 mm | - | 104 W/m² | - |
| 1777844704 | 11.11° C | 37% | 1006.6 hPa | 0 mm | - | 93 W/m² | - |
| 1777844400 | 11.11° C | 40% | 1006.8 hPa | 0 mm | - | 89 W/m² | - |
| 1777844099 | 11.11° C | 39% | 1006.8 hPa | 0 mm | - | 96 W/m² | - |
| 1777843795 | 11.11° C | 37% | 1006.8 hPa | 0 mm | - | 87 W/m² | - |
| 1777843493 | 11.11° C | 39% | 1006.6 hPa | 0 mm | - | 68 W/m² | - |
| 1777843190 | 11.11° C | 35% | 1006.4 hPa | 0 mm | - | 78 W/m² | - |
| 1777842887 | 11.67° C | 35% | 1006.6 hPa | 0 mm | - | 81 W/m² | - |
* Rain latest hour (hover to see other rain measurements)
** Current wind speed in m/s (hover to see current wind gust speed)